Wind_Speed
45 46 45 43 42 40 41 43 45 45 46 46 46 47 48 49 48 48 47 47 47 45 43 42 41 40 38 38 37 37 37 36 36 36 36 35 35 36 37 37 38 38 39 39
44 44 42 40 39 39 40 41 43 44 45 43 44 45 47 48 48 47 47 47 47 46 44 43 41 40 39 38 38 38 38 38 37 37 37 37 37 37 38 39 39 40 41 42
39 39 39 39 38 37 38 39 40 42 42 41 41 44 46 46 47 47 47 47 47 46 44 43 42 41 40 39 38 38 38 39 38 38 38 39 39 39 39 40 41 42 43 44
37 36 37 37 37 35 35 37 38 40 40 39 39 40 43 44 45 46 47 47 46 46 45 43 42 41 41 40 39 39 38 39 39 39 39 40 40 40 41 42 42 43 44 44
34 35 36 36 34 34 34 35 36 37 38 39 39 39 41 42 42 43 45 46 46 45 45 43 42 41 40 40 39 39 39 39 39 40 40 40 41 41 41 42 43 43 44 45
31 32 33 33 33 32 31 32 34 35 36 37 36 36 39 40 39 40 41 43 44 44 43 43 42 41 40 39 39 39 39 39 39 40 40 40 41 41 42 42 43 43 44 45
28 30 30 31 31 32 30 30 32 34 36 35 33 35 37 38 38 38 38 40 41 42 42 42 41 40 39 39 38 38 38 39 39 39 40 40 41 41 41 42 43 43 44 45
24 26 28 29 30 30 29 29 30 32 33 33 33 34 35 35 35 36 37 38 38 39 40 40 40 39 39 38 38 38 38 38 38 39 39 39 40 40 41 41 42 43 43 44
21 22 24 27 28 29 29 30 28 28 29 30 32 34 34 34 33 34 35 36 37 38 38 38 38 38 38 38 37 37 37 37 37 37 38 38 38 39 40 41 41 42 43 44
20 20 21 24 26 27 27 27 27 27 27 28 29 30 31 31 32 33 34 35 36 36 37 37 37 37 37 37 37 36 36 37 37 37 37 37 38 38 39 40 40 41 42 43
17 18 20 22 24 25 25 26 27 27 27 26 26 28 29 29 30 32 33 34 35 35 36 36 37 36 36 36 36 36 36 36 36 36 36 36 37 37 38 38 38 39 39 40
15 17 18 19 21 22 23 23 25 27 26 26 26 26 24 25 28 29 31 32 33 34 35 35 36 36 35 35 35 35 35 35 35 35 35 35 35 35 35 35 36 36 38 39
14 16 16 18 20 22 22 22 24 25 25 25 26 25 22 22 24 26 28 30 31 32 33 34 34 34 34 34 34 34 34 34 34 34 34 33 33 33 33 33 33 35 36 37
13 15 16 16 17 19 21 23 23 25 25 25 26 25 22 22 23 24 25 27 29 30 31 32 32 32 32 32 32 32 32 32 32 32 31 31 30 30 30 31 32 32 33 34
13 14 15 15 16 18 19 21 22 22 23 24 24 23 22 22 22 23 23 25 26 27 28 29 29 30 30 30 30 30 30 29 29 29 28 28 28 28 28 29 29 30 31 32
13 14 14 15 16 17 18 19 20 20 22 23 22 22 21 20 21 22 22 23 24 24 25 26 27 27 27 27 27 27 27 27 26 26 26 26 27 27 27 27 28 29 29 30
14 15 15 15 16 16 17 17 18 19 19 21 22 21 20 20 21 21 21 22 22 23 23 24 24 25 25 25 25 25 25 24 24 24 25 25 25 25 26 26 27 27 28 29
14 15 15 15 15 16 15 17 18 19 20 20 20 20 19 19 20 20 20 21 22 22 22 22 23 23 23 23 23 23 23 22 23 23 24 24 24 24 25 25 26 26 26 26
14 14 15 15 15 15 15 16 17 18 19 19 19 19 19 19 20 20 20 20 20 21 21 21 21 21 21 21 21 21 21 21 22 22 23 23 23 23 23 24 24 24 24 24
14 15 15 15 16 15 14 15 16 17 18 19 19 18 19 19 19 19 19 19 19 19 19 20 20 20 20 20 20 20 20 20 21 21 21 22 22 22 23 22 23 23 23 23
14 14 15 16 16 15 14 16 16 17 17 17 18 19 19 19 19 19 19 19 19 19 19 19 19 19 19 19 19 19 20 20 20 20 20 21 21 22 22 22 22 22 22 22
15 15 15 16 16 15 15 15 16 16 16 17 17 18 19 19 19 19 19 19 19 19 18 18 18 18 18 18 19 19 19 19 19 19 20 21 21 21 21 21 22 22 22 22
15 16 16 16 16 16 17 17 17 17 17 17 17 18 18 19 19 19 19 19 19 18 18 17 17 17 17 17 18 18 18 18 19 19 19 20 20 20 20 20 20 21 21 21
17 17 17 17 17 18 18 18 18 18 19 19 19 19 19 19 19 20 19 19 19 19 18 17 17 17 17 17 17 18 18 18 18 18 18 19 19 19 19 20 20 21 21 22
17 18 19 19 19 19 19 19 19 19 20 20 20 20 20 20 20 20 20 20 20 19 19 18 18 18 18 18 18 18 18 19 19 18 18 19 19 20 20 21 21 22 22 23
19 19 20 20 20 20 20 20 21 20 21 21 22 22 22 21 21 21 21 20 20 20 20 20 19 19 19 19 19 19 19 19 19 19 19 20 20 21 21 22 22 23 24 24
Wind_Direction
203 207 209 210 213 216 219 220 221 223 225 225 227 226 226 225 225 226 227 228 229 230 231 233 235 237 240 243 246 248 250 253 256 259 262 265 268 270 273 276 278 280 281 281
200 205 206 208 210 213 217 219 220 223 225 225 226 227 227 227 225 226 228 229 230 231 233 235 237 239 242 244 247 249 251 254 256 259 261 264 267 269 272 275 278 279 280 281
197 201 203 206 208 211 215 219 220 222 224 226 227 228 228 229 228 227 228 230 232 233 235 237 238 240 243 246 248 250 251 254 256 258 261 264 267 270 272 274 276 277 279 280
193 196 199 202 206 209 213 217 220 223 223 227 229 230 229 230 230 229 229 231 233 235 237 239 240 242 243 245 248 249 251 253 256 259 262 265 267 270 272 273 275 276 278 279
191 192 196 200 204 208 213 218 221 224 226 228 228 231 231 230 230 230 231 232 234 236 238 240 242 243 244 246 248 250 252 254 256 259 262 265 268 270 272 273 275 276 277 279
187 191 195 198 202 207 211 216 221 225 227 228 228 231 233 232 230 230 232 233 234 236 239 242 244 245 245 247 248 250 253 255 257 260 262 265 268 270 272 273 275 276 277 279
184 189 194 196 200 203 207 212 217 222 227 227 227 230 232 232 230 230 232 233 234 236 239 241 243 245 247 248 250 252 254 256 258 261 263 266 268 270 272 273 275 277 278 280
181 188 193 197 201 203 207 212 217 223 228 228 228 230 231 233 231 230 232 233 234 236 238 241 243 245 247 249 251 253 255 257 259 261 263 265 268 270 272 274 276 278 279 280
184 188 192 196 199 204 208 213 217 222 226 229 231 232 232 233 232 231 232 233 234 236 237 240 242 245 247 249 251 253 256 258 259 261 263 266 268 270 273 275 276 278 280 281
188 193 194 196 201 204 208 213 217 219 222 228 233 234 233 233 233 233 232 233 234 235 237 239 241 244 246 249 251 253 256 258 260 262 264 267 269 271 273 275 277 279 281 283
192 199 200 203 206 208 211 214 217 220 222 224 230 234 232 233 233 233 232 232 233 235 236 238 241 243 246 248 251 253 256 258 260 263 266 268 270 272 274 277 279 282 284 286
198 202 205 208 210 212 214 217 218 219 220 223 229 234 233 233 233 234 233 233 234 235 236 238 240 243 246 248 251 253 256 259 262 264 267 269 272 274 277 279 282 284 287 290
204 208 212 213 216 217 218 220 220 220 222 225 231 235 234 234 232 232 232 232 233 234 236 238 240 243 246 248 251 254 257 260 263 265 268 271 274 276 278 281 284 287 290 293
209 211 215 221 222 221 221 223 224 224 225 227 232 235 234 233 232 231 232 233 233 235 237 239 241 243 246 249 252 254 257 260 263 266 269 272 274 277 280 283 287 290 294 297
217 215 219 222 222 222 223 224 226 226 227 229 232 233 233 233 232 233 233 234 235 236 238 240 242 244 247 250 253 256 259 261 264 267 269 271 274 278 282 285 288 292 296 298
224 223 224 225 225 224 223 224 226 225 227 229 231 232 233 233 231 232 233 235 237 238 240 242 245 246 248 251 254 256 259 261 265 267 269 272 276 280 283 285 288 292 296 299
228 229 229 228 228 227 226 226 226 225 225 227 228 229 229 230 231 233 235 237 239 241 243 245 247 249 251 253 255 257 259 261 264 268 271 274 277 280 283 286 289 292 295 299
231 231 231 230 228 229 227 227 226 225 225 228 229 228 228 230 232 234 236 239 241 243 245 247 249 250 252 253 255 257 258 261 266 270 272 274 277 280 283 287 290 292 295 299
230 232 232 231 231 229 226 227 226 226 227 228 229 230 230 232 233 234 237 240 243 244 246 247 249 250 251 253 254 255 259 264 268 271 272 274 277 281 284 287 289 292 296 300
232 232 233 232 233 233 227 229 229 228 228 228 230 231 232 234 236 237 239 242 244 245 246 247 249 249 251 253 254 256 261 266 269 271 272 274 278 282 285 287 289 292 297 300
234 234 233 233 233 233 232 232 232 231 230 230 232 233 234 236 238 239 242 244 246 247 247 247 248 249 251 253 255 258 262 266 270 271 274 276 279 282 284 287 290 293 296 300
236 236 235 235 235 236 236 236 236 237 234 234 235 235 236 238 240 242 244 246 248 247 247 248 249 251 252 254 256 260 263 266 270 273 276 278 280 282 284 287 290 293 296 299
240 240 239 239 240 240 240 239 238 238 237 237 237 237 239 240 242 244 246 248 247 247 248 249 251 253 254 256 259 262 264 267 272 275 277 279 281 282 284 288 291 293 296 299
244 244 243 243 243 242 241 241 241 241 241 240 240 241 242 243 245 246 248 248 248 248 250 251 253 256 258 260 262 264 265 269 273 275 277 279 281 282 284 288 291 293 296 299
247 246 245 245 245 244 243 243 243 243 243 243 243 245 247 247 247 248 248 249 249 250 252 253 255 258 260 262 264 265 266 269 272 275 277 279 281 282 285 288 291 294 297 299
247 247 246 246 247 246 244 244 245 245 245 245 246 247 248 249 249 250 249 250 250 251 252 254 256 259 261 263 264 265 267 269 271 273 276 279 281 283 285 288 292 295 297 299
Height
5607 5618 5627 5639 5649 5658 5664 5670 5677 5683 5689 5696 5704 5711 5718 5724 5732 5739 5746 5752 5758 5764 5769 5774 5780 5784 5788 5791 5794 5797 5799 5801 5803 5804 5806 5807 5808 5808 5809 5809 5809 5809 5809 5808
5604 5614 5627 5636 5644 5651 5657 5664 5671 5677 5683 5691 5697 5704 5710 5717 5726 5733 5739 5745 5751 5757 5763 5768 5773 5777 5781 5785 5787 5790 5792 5794 5796 5797 5799 5800 5801 5801 5802 5802 5802 5801 5800 5799
5602 5615 5623 5632 5640 5647 5654 5661 5667 5672 5679 5685 5691 5697 5704 5711 5719 5726 5732 5738 5744 5750 5755 5761 5766 5771 5774 5778 5780 5783 5785 5787 5788 5790 5791 5792 5793 5794 5794 5794 5794 5793 5792 5791
5600 5610 5619 5628 5636 5643 5650 5657 5662 5668 5675 5680 5686 5692 5699 5705 5712 5719 5726 5731 5737 5743 5748 5754 5759 5763 5767 5770 5773 5775 5777 5779 5781 5782 5783 5784 5785 5786 5786 5786 5785 5784 5783 5782
5599 5608 5617 5626 5634 5641 5647 5653 5659 5665 5670 5675 5680 5686 5692 5698 5705 5713 5719 5725 5730 5736 5741 5746 5751 5755 5759 5762 5765 5767 5769 5771 5773 5774 5775 5775 5776 5777 5777 5776 5776 5775 5774 5773
5600 5608 5616 5624 5631 5638 5644 5650 5655 5659 5664 5670 5676 5681 5686 5693 5700 5707 5712 5718 5723 5729 5734 5738 5742 5746 5750 5753 5756 5759 5761 5763 5765 5766 5766 5767 5768 5768 5768 5767 5766 5765 5764 5763
5600 5607 5614 5621 5628 5634 5641 5647 5652 5655 5659 5666 5671 5675 5681 5687 5694 5700 5706 5711 5716 5721 5726 5730 5734 5738 5742 5745 5748 5750 5753 5754 5756 5757 5758 5758 5759 5759 5758 5758 5757 5756 5755 5753
5601 5608 5614 5620 5626 5632 5638 5644 5649 5653 5657 5663 5667 5670 5676 5682 5688 5694 5699 5704 5708 5713 5718 5722 5726 5730 5733 5736 5739 5742 5744 5746 5747 5748 5749 5749 5749 5749 5749 5748 5747 5746 5745 5743
5603 5609 5614 5619 5625 5631 5635 5640 5645 5650 5654 5658 5662 5666 5671 5676 5682 5687 5692 5697 5701 5706 5710 5714 5718 5722 5725 5728 5730 5733 5735 5737 5738 5739 5740 5740 5740 5740 5740 5739 5738 5736 5735 5733
5606 5610 5614 5619 5624 5628 5634 5638 5642 5646 5650 5654 5658 5662 5667 5672 5676 5680 5685 5690 5694 5699 5703 5707 5710 5713 5716 5719 5722 5724 5726 5728 5729 5730 5731 5731 5731 5731 5730 5729 5728 5726 5724 5722
5607 5611 5615 5618 5622 5627 5632 5636 5639 5643 5647 5651 5654 5659 5662 5666 5670 5674 5678 5683 5687 5691 5695 5698 5702 5705 5708 5711 5713 5715 5717 5719 5720 5721 5721 5722 5721 5721 5720 5719 5718 5716 5713 5711
5608 5612 5614 5618 5622 5625 5629 5633 5636 5641 5644 5647 5650 5656 5657 5661 5664 5668 5672 5676 5680 5683 5687 5691 5694 5697 5700 5703 5705 5707 5709 5710 5711 5712 5712 5712 5712 5711 5710 5709 5707 5705 5703 5700
5608 5612 5614 5617 5622 5624 5626 5630 5633 5637 5640 5643 5646 5652 5653 5656 5659 5663 5666 5670 5673 5676 5680 5683 5686 5689 5692 5695 5697 5699 5700 5701 5702 5703 5703 5703 5703 5702 5701 5700 5698 5696 5693 5689
5608 5611 5614 5617 5619 5621 5624 5627 5630 5633 5636 5640 5642 5646 5649 5652 5655 5658 5661 5664 5667 5670 5673 5676 5679 5682 5685 5687 5689 5691 5692 5693 5694 5694 5694 5694 5694 5693 5692 5691 5689 5686 5683 5680
5607 5609 5611 5614 5616 5618 5621 5624 5626 5630 5633 5636 5639 5642 5645 5648 5651 5653 5656 5659 5662 5665 5667 5670 5673 5675 5678 5680 5682 5683 5684 5685 5686 5686 5686 5686 5686 5685 5684 5682 5680 5677 5674 5671
5606 5608 5609 5611 5613 5615 5618 5620 5623 5626 5629 5632 5635 5638 5641 5644 5646 5649 5652 5654 5657 5659 5662 5664 5667 5669 5671 5673 5674 5676 5677 5678 5678 5679 5679 5678 5678 5677 5676 5674 5672 5669 5667 5663
5604 5606 5608 5610 5611 5613 5616 5618 5620 5623 5626 5628 5631 5635 5637 5640 5642 5645 5647 5650 5652 5654 5657 5659 5661 5663 5665 5666 5668 5669 5670 5671 5671 5671 5671 5671 5670 5669 5668 5666 5664 5662 5659 5656
5602 5604 5605 5607 5609 5611 5616 5615 5617 5620 5622 5625 5628 5630 5633 5636 5638 5640 5643 5645 5647 5650 5652 5653 5655 5657 5658 5660 5661 5662 5663 5664 5664 5664 5664 5664 5663 5662 5661 5659 5657 5655 5652 5649
5599 5601 5603 5605 5606 5608 5612 5613 5614 5617 5619 5622 5624 5627 5629 5632 5634 5636 5638 5641 5643 5645 5646 5648 5649 5651 5652 5653 5655 5656 5657 5657 5658 5658 5658 5657 5657 5655 5654 5652 5650 5648 5645 5642
5597 5599 5601 5602 5604 5606 5610 5610 5611 5615 5616 5619 5621 5623 5626 5628 5630 5633 5634 5636 5638 5639 5641 5642 5644 5645 5646 5648 5649 5650 5651 5651 5651 5651 5651 5651 5650 5649 5647 5646 5644 5642 5639 5636
5594 5596 5597 5599 5601 5603 5606 5607 5609 5613 5615 5616 5617 5620 5622 5624 5626 5628 5630 5631 5633 5634 5636 5637 5638 5640 5641 5642 5643 5644 5645 5645 5645 5645 5645 5644 5644 5643 5641 5640 5638 5636 5633 5631
5591 5593 5594 5596 5598 5603 5602 5604 5606 5609 5610 5612 5614 5616 5618 5619 5621 5623 5625 5626 5628 5629 5631 5632 5633 5635 5636 5637 5638 5638 5639 5639 5639 5639 5639 5638 5637 5636 5635 5634 5632 5630 5628 5625
5588 5590 5591 5594 5597 5597 5598 5600 5602 5604 5606 5608 5610 5611 5613 5615 5617 5618 5620 5622 5623 5624 5626 5627 5628 5629 5630 5631 5632 5633 5633 5634 5634 5633 5633 5632 5631 5630 5629 5628 5626 5624 5622 5619
5584 5585 5587 5589 5591 5592 5594 5596 5598 5599 5601 5603 5605 5607 5609 5610 5612 5614 5615 5617 5618 5620 5621 5622 5623 5624 5625 5626 5626 5627 5628 5628 5628 5628 5627 5626 5626 5625 5624 5622 5621 5619 5616 5614
5580 5581 5582 5584 5586 5588 5590 5591 5593 5595 5597 5598 5600 5602 5604 5605 5607 5609 5610 5611 5613 5614 5616 5617 5618 5619 5620 5620 5621 5621 5622 5622 5622 5622 5621 5621 5620 5619 5618 5616 5615 5612 5610 5607
5575 5576 5578 5580 5581 5583 5585 5586 5588 5590 5591 5593 5595 5597 5598 5600 5602 5603 5605 5606 5607 5609 5610 5611 5612 5613 5614 5615 5615 5616 5616 5616 5616 5616 5616 5615 5614 5613 5612 5610 5608 5606 5604 5601